KE0RUZ Weather Reports


Display with metric or nautical units.
time (UTC)temp
F
wind
direction
speed
MPH
gust
MPH
rain 1hr
in
rain 24hr
in
rain mn
in
humidity
%
barometer
mb
20260509003041 66 105 1.0 6.0 0.00 0.00 0.00 72 1007.7
20260509001544 67 219 3.0 6.0 0.00 0.00 0.00 70 1008.9
20260509000046 67 237 1.0 5.0 0.00 0.00 0.00 71 1008.4
20260508234542 67 264 2.0 6.0 0.00 0.00 0.00 73 1008.0
20260508233100 67 190 5.0 8.0 0.00 0.00 0.00 73 1007.5
20260508231551 67 159 0.0 5.0 0.00 0.00 0.00 72 1008.7
20260508230053 68 146 1.0 1.0 0.00 0.00 0.00 73 1009.0
20260508224543 69 0 0.0 5.0 0.00 0.00 0.00 71 1009.6
20260508223045 69 212 1.0 3.0 0.00 0.00 0.00 64 1010.0
20260508221551 70 0 1.0 5.0 0.00 0.00 0.00 60 1010.1
20260508220046 71 309 1.0 3.0 0.00 0.00 0.00 61 1010.0
20260508214546 72 283 1.0 7.0 0.00 0.00 0.00 55 1010.0
20260508213045 74 0 1.0 5.0 0.00 0.00 0.00 56 1009.9
20260508211543 74 239 3.0 9.0 0.00 0.00 0.00 53 1009.7
20260508210039 75 248 5.0 11.0 0.00 0.00 0.00 52 1009.6
20260508204552 76 221 2.0 9.0 0.00 0.00 0.00 54 1009.7
20260508203054 77 235 5.0 11.0 0.00 0.00 0.00 51 1009.7
20260508201543 77 258 4.0 12.0 0.00 0.00 0.00 50 1009.9
20260508200052 76 231 7.0 12.0 0.00 0.00 0.00 50 1010.1
20260508194547 76 255 4.0 14.0 0.00 0.00 0.00 51 1010.4
20260508193104 76 273 5.0 12.0 0.00 0.00 0.00 50 1010.7
20260508191554 76 221 5.0 14.0 0.00 0.00 0.00 51 1010.8
20260508190052 75 248 6.0 11.0 0.00 0.00 0.00 50 1011.0
20260508184551 75 247 4.0 12.0 0.00 0.00 0.00 50 1011.2
20260508183053 75 261 6.0 12.0 0.00 0.00 0.00 49 1011.6
20260508181551 74 210 6.0 13.0 0.00 0.00 0.00 52 1011.7
20260508180049 74 125 5.0 14.0 0.00 0.00 0.00 53 1011.8
20260508174553 73 247 6.0 14.0 0.00 0.00 0.00 55 1012.0
20260508173046 72 252 5.0 12.0 0.00 0.00 0.00 57 1012.2
20260508171547 72 133 5.0 12.0 0.00 0.00 0.00 61 1012.5
20260508170051 71 182 4.0 14.0 0.00 0.00 0.00 64 1012.8
20260508164554 71 264 6.0 16.0 0.00 0.00 0.00 60 1013.1
20260508163046 70 236 6.0 13.0 0.00 0.00 0.00 62 1013.3
20260508161547 69 257 6.0 12.0 0.00 0.00 0.00 65 1013.6
20260508160051 68 251 8.0 14.0 0.00 0.00 0.00 64 1013.8
20260508154551 68 198 6.0 15.0 0.00 0.00 0.00 65 1013.9
20260508153047 68 224 6.0 14.0 0.00 0.00 0.00 64 1014.1
20260508151554 67 232 4.0 11.0 0.00 0.00 0.00 67 1014.3
20260508150050 66 173 6.0 11.0 0.00 0.00 0.00 66 1014.5
20260508144552 66 315 4.0 11.0 0.00 0.00 0.00 68 1014.6
20260508143055 64 257 4.0 11.0 0.00 0.00 0.00 70 1014.9
20260508141548 63 255 8.0 21.0 0.00 0.00 0.00 72 1015.0
20260508140055 62 253 7.0 12.0 0.00 0.00 0.00 72 1015.0
20260508134553 62 219 7.0 15.0 0.00 0.00 0.00 73 1015.1
20260508133056 61 244 3.0 10.0 0.00 0.00 0.00 74 1015.2
20260508131552 60 262 5.0 14.0 0.00 0.00 0.00 73 1015.1
20260508130100 59 250 4.0 11.0 0.00 0.00 0.00 75 1015.1
20260508124550 57 221 5.0 10.0 0.00 0.00 0.00 75 1015.1
20260508123054 56 252 3.0 9.0 0.00 0.00 0.00 76 1014.7
20260508121545 55 223 4.0 8.0 0.00 0.00 0.00 76 1014.8
20260508120052 54 238 2.0 6.0 0.00 0.00 0.00 77 1014.6
20260508114550 53 257 3.0 7.0 0.00 0.00 0.00 77 1014.2
20260508113054 52 259 1.0 5.0 0.00 0.00 0.00 78 1014.1
20260508111549 52 252 0.0 4.0 0.00 0.00 0.00 79 1013.8
20260508110045 51 269 0.0 3.0 0.00 0.00 0.00 80 1013.9
20260508104543 50 226 0.0 2.0 0.00 0.00 0.00 81 1013.8
20260508103049 50 0 0.0 2.0 0.00 0.00 0.00 80 1013.7
20260508101547 50 0 0.0 3.0 0.00 0.00 0.00 80 1013.8
20260508100048 50 164 0.0 2.0 0.00 0.00 0.00 79 1013.8
20260508094547 51 142 0.0 3.0 0.00 0.00 0.00 80 1013.7
20260508093051 51 122 1.0 2.0 0.00 0.00 0.00 79 1013.9
20260508091556 50 0 1.0 2.0 0.00 0.00 0.00 80 1013.8
20260508084543 51 0 0.0 2.0 0.00 0.00 0.00 78 1013.9
20260508083050 51 0 0.0 3.0 0.00 0.00 0.00 78 1014.0
20260508081600 52 0 0.0 2.0 0.00 0.00 0.00 77 1014.2
20260508080052 52 146 1.0 3.0 0.00 0.00 0.00 76 1014.3
20260508074548 52 141 1.0 5.0 0.00 0.00 0.00 76 1014.4
20260508073105 52 117 0.0 3.0 0.00 0.00 0.00 75 1014.4
20260508071559 52 189 1.0 3.0 0.00 0.00 0.00 76 1014.6
20260508070100 53 120 0.0 4.0 0.00 0.00 0.00 75 1014.7
20260508064544 53 0 1.0 7.0 0.00 0.00 0.00 74 1014.8
20260508063047 53 0 0.0 3.0 0.00 0.00 0.00 74 1014.8
20260508061538 53 131 0.0 3.0 0.00 0.00 0.00 74 1015.1
20260508060047 53 212 0.0 2.0 0.00 0.00 0.00 74 1015.0
20260508054551 53 139 0.0 3.0 0.00 0.00 0.00 74 1015.2
20260508053050 54 128 0.0 3.0 0.00 0.00 0.00 73 1015.3
20260508051542 54 126 0.0 4.0 0.00 0.00 0.00 73 1015.4
20260508050050 54 231 1.0 4.0 0.00 0.00 0.00 73 1015.4
20260508044548 54 128 1.0 3.0 0.00 0.00 0.00 73 1015.5
20260508043047 54 0 0.0 2.0 0.00 0.00 0.00 73 1015.7
20260508041545 54 120 0.0 4.0 0.00 0.00 0.00 74 1015.8
20260508040043 55 122 0.0 2.0 0.00 0.00 0.00 72 1015.9
20260508034547 55 137 1.0 2.0 0.00 0.00 0.00 73 1015.9
20260508033110 55 124 0.0 3.0 0.00 0.00 0.00 73 1016.2
20260508031545 55 167 0.0 2.0 0.00 0.00 0.00 73 1016.3
20260508030053 55 120 0.0 2.0 0.00 0.00 0.00 73 1016.3
20260508024540 55 123 1.0 3.0 0.00 0.00 0.00 74 1016.1
20260508023045 54 115 0.0 0.0 0.00 0.00 0.00 77 1016.0
20260508021544 54 0 0.0 0.0 0.00 0.00 0.00 76 1015.9
20260508014551 57 0 0.0 0.0 0.00 0.00 0.00 68 1015.4
20260508013040 59 0 0.0 0.0 0.00 0.00 0.00 64 1015.3
20260508011547 61 0 0.0 2.0 0.00 0.00 0.00 62 1015.2
20260508010046 63 227 0.0 3.0 0.00 0.00 0.00 58 1015.1